Location: Zagreb
(45.8000°N, 16.0000°E)
Time: 22:34:53
(UTC+01:00)

Vanguard 2 Rocket - Pass Details

Date: 04 February 2020
Orbit: 553 x 3327 km, 32.9° (Epoch: 24 February)

Event Time Altitude Azimuth Distance (km) Brightness Sun altitude
Exits shadow 05:27:23 11° 205° (SSW) 1,863 8.3 -19.0°
Maximum altitude 05:28:28 12° 189° (S) 1,858 8.5 -18.8°
Drops below altitude 10° 05:29:59 10° 169° (S) 2,051 8.9 -18.5°
Sets 05:34:24 0° 137° (SE) 3,355 10.6 -17.8°
